| time (UTC) | temp C | wind direction | speed KPH | gust KPH | rain 1hr cm | rain 24hr cm | rain mn cm | humidity % | barometer mb |
| 20260506081550 | 6 | 0 | 0.0 | 0.0 | 0.00 | 0.58 | 0.00 | 86 | 1019.9 |
| 20260506081025 | 6 | 0 | 0.0 | 0.0 | 0.00 | 0.58 | 0.00 | 86 | 1019.9 |
| 20260506080528 | 6 | 0 | 0.0 | 0.0 | 0.00 | 0.58 | 0.00 | 86 | 1019.8 |
| 20260506073524 | 7 | 0 | 0.0 | 0.0 | 0.00 | 0.69 | 0.00 | 84 | 1019.8 |
| 20260506073043 | 7 | 0 | 0.0 | 0.0 | 0.00 | 0.69 | 0.00 | 83 | 1019.6 |
| 20260506072524 | 7 | 0 | 0.0 | 0.0 | 0.00 | 0.69 | 0.00 | 83 | 1019.6 |
| 20260506072025 | 7 | 0 | 0.0 | 0.0 | 0.00 | 0.69 | 0.00 | 83 | 1019.6 |
| 20260506071548 | 7 | 0 | 0.0 | 0.0 | 0.00 | 0.69 | 0.00 | 84 | 1019.5 |
| 20260506071026 | 7 | 0 | 0.0 | 1.6 | 0.00 | 0.69 | 0.00 | 83 | 1019.4 |
| 20260506070525 | 7 | 0 | 0.0 | 4.8 | 0.00 | 0.69 | 0.00 | 83 | 1019.3 |
| 20260506062024 | 7 | 0 | 0.0 | 1.6 | 0.00 | 0.74 | 0.69 | 81 | 1018.9 |
| 20260506061542 | 7 | 0 | 0.0 | 3.2 | 0.00 | 0.74 | 0.69 | 82 | 1018.9 |
| 20260506061026 | 7 | 183 | 0.0 | 3.2 | 0.00 | 0.74 | 0.69 | 82 | 1018.8 |
| 20260506060524 | 7 | 0 | 0.0 | 4.8 | 0.00 | 0.74 | 0.69 | 83 | 1018.7 |
| 20260506051024 | 8 | 0 | 0.0 | 0.0 | 0.00 | 0.76 | 0.69 | 81 | 1018.4 |
| 20260506050524 | 8 | 0 | 0.0 | 0.0 | 0.00 | 0.76 | 0.69 | 80 | 1018.3 |
| 20260506045026 | 8 | 0 | 0.0 | 0.0 | 0.00 | 0.81 | 0.69 | 80 | 1018.2 |
| 20260506044552 | 8 | 0 | 0.0 | 0.0 | 0.00 | 0.81 | 0.69 | 81 | 1018.2 |
| 20260506044027 | 8 | 0 | 0.0 | 0.0 | 0.00 | 0.81 | 0.69 | 79 | 1018.2 |
| 20260506043530 | 8 | 0 | 0.0 | 0.0 | 0.00 | 0.81 | 0.69 | 80 | 1018.0 |
| 20260506043038 | 8 | 0 | 0.0 | 0.0 | 0.00 | 0.81 | 0.69 | 82 | 1018.0 |
| 20260506042527 | 8 | 0 | 0.0 | 0.0 | 0.00 | 0.81 | 0.69 | 83 | 1018.0 |
| 20260506042024 | 7 | 0 | 0.0 | 0.0 | 0.00 | 0.81 | 0.69 | 83 | 1017.9 |
| 20260506041552 | 7 | 0 | 0.0 | 0.0 | 0.00 | 0.81 | 0.69 | 83 | 1017.8 |
| 20260506041025 | 7 | 0 | 0.0 | 0.0 | 0.00 | 0.81 | 0.69 | 83 | 1017.8 |
| 20260506040526 | 7 | 0 | 0.0 | 0.0 | 0.00 | 0.81 | 0.69 | 82 | 1017.6 |
| 20260506040046 | 7 | 0 | 0.0 | 0.0 | 0.00 | 0.81 | 0.69 | 84 | 1017.6 |
| 20260506035527 | 8 | 0 | 0.0 | 0.0 | 0.00 | 0.89 | 0.69 | 84 | 1017.4 |
| 20260506035026 | 8 | 0 | 0.0 | 1.6 | 0.00 | 0.89 | 0.69 | 84 | 1017.4 |
| 20260506034542 | 8 | 0 | 0.0 | 3.2 | 0.00 | 0.89 | 0.69 | 84 | 1017.3 |
| 20260506034046 | 8 | 0 | 0.0 | 4.8 | 0.00 | 0.89 | 0.69 | 83 | 1017.1 |
| 20260506033525 | 8 | 183 | 1.6 | 4.8 | 0.00 | 0.89 | 0.69 | 83 | 1017.1 |
| 20260506033043 | 8 | 183 | 0.0 | 4.8 | 0.00 | 0.89 | 0.69 | 83 | 1017.1 |
| 20260506032525 | 8 | 183 | 0.0 | 3.2 | 0.00 | 0.89 | 0.69 | 83 | 1017.0 |
| 20260506032025 | 8 | 183 | 0.0 | 3.2 | 0.00 | 0.89 | 0.69 | 82 | 1017.0 |
| 20260506031554 | 8 | 183 | 1.6 | 3.2 | 0.00 | 0.89 | 0.69 | 84 | 1017.0 |
| 20260506031025 | 8 | 0 | 0.0 | 3.2 | 0.00 | 0.89 | 0.69 | 84 | 1016.9 |
| 20260506030526 | 8 | 183 | 0.0 | 3.2 | 0.00 | 0.89 | 0.69 | 84 | 1016.9 |
| 20260506030058 | 8 | 0 | 0.0 | 3.2 | 0.00 | 0.89 | 0.69 | 84 | 1016.7 |
| 20260506025528 | 8 | 0 | 0.0 | 3.2 | 0.00 | 1.09 | 0.69 | 84 | 1016.7 |
| 20260506025025 | 8 | 0 | 0.0 | 3.2 | 0.00 | 1.09 | 0.69 | 84 | 1016.6 |
| 20260506024545 | 8 | 0 | 1.6 | 3.2 | 0.00 | 1.09 | 0.69 | 83 | 1016.5 |
| 20260506024025 | 8 | 0 | 0.0 | 3.2 | 0.00 | 1.09 | 0.69 | 85 | 1016.5 |
| 20260506023525 | 8 | 0 | 0.0 | 3.2 | 0.00 | 1.09 | 0.69 | 85 | 1016.6 |
| 20260506023042 | 8 | 183 | 0.0 | 3.2 | 0.00 | 1.09 | 0.69 | 84 | 1016.4 |
| 20260506022525 | 8 | 0 | 0.0 | 0.0 | 0.00 | 1.09 | 0.69 | 83 | 1016.3 |
| 20260506022025 | 8 | 0 | 0.0 | 0.0 | 0.00 | 1.09 | 0.69 | 82 | 1016.4 |
| 20260506021540 | 8 | 0 | 0.0 | 0.0 | 0.00 | 1.09 | 0.69 | 81 | 1016.3 |
| 20260506021025 | 8 | 0 | 0.0 | 0.0 | 0.00 | 1.09 | 0.69 | 80 | 1016.3 |
| 20260506020528 | 8 | 0 | 0.0 | 0.0 | 0.00 | 1.09 | 0.69 | 79 | 1016.3 |
| 20260506020046 | 9 | 0 | 0.0 | 0.0 | 0.00 | 1.09 | 0.69 | 79 | 1016.2 |
| 20260506015526 | 9 | 0 | 0.0 | 1.6 | 0.00 | 1.37 | 0.69 | 78 | 1016.1 |
| 20260506015026 | 9 | 0 | 0.0 | 3.2 | 0.00 | 1.37 | 0.69 | 78 | 1016.2 |
| 20260506014543 | 9 | 0 | 0.0 | 4.8 | 0.00 | 1.37 | 0.69 | 77 | 1016.1 |
| 20260506014024 | 9 | 0 | 0.0 | 4.8 | 0.00 | 1.37 | 0.69 | 77 | 1016.1 |
| 20260506013525 | 9 | 183 | 1.6 | 4.8 | 0.00 | 1.37 | 0.69 | 77 | 1015.9 |
| 20260506013050 | 9 | 183 | 0.0 | 3.2 | 0.00 | 1.37 | 0.69 | 77 | 1015.9 |
| 20260506012526 | 9 | 0 | 0.0 | 3.2 | 0.00 | 1.37 | 0.69 | 77 | 1016.0 |
| 20260506012027 | 9 | 0 | 1.6 | 3.2 | 0.00 | 1.37 | 0.69 | 77 | 1015.8 |
| 20260506011540 | 9 | 0 | 0.0 | 6.4 | 0.00 | 1.37 | 0.69 | 76 | 1015.8 |
| 20260506011027 | 9 | 183 | 1.6 | 6.4 | 0.00 | 1.37 | 0.69 | 76 | 1015.8 |
| 20260506010526 | 9 | 183 | 1.6 | 6.4 | 0.00 | 1.37 | 0.69 | 76 | 1015.8 |
| 20260506010039 | 9 | 0 | 1.6 | 4.8 | 0.00 | 1.37 | 0.69 | 76 | 1015.7 |
| 20260506005526 | 9 | 183 | 1.6 | 6.4 | 0.00 | 1.57 | 0.69 | 77 | 1015.7 |
| 20260506005027 | 9 | 183 | 0.0 | 6.4 | 0.00 | 1.57 | 0.69 | 78 | 1015.7 |
| 20260506004620 | 9 | 183 | 3.2 | 6.4 | 0.00 | 1.57 | 0.69 | 77 | 1015.7 |
| 20260506004024 | 9 | 0 | 1.6 | 6.4 | 0.00 | 1.57 | 0.69 | 76 | 1015.7 |
| 20260506003525 | 9 | 183 | 1.6 | 6.4 | 0.00 | 1.57 | 0.69 | 76 | 1015.7 |
| 20260506003045 | 9 | 183 | 0.0 | 6.4 | 0.00 | 1.57 | 0.69 | 76 | 1015.7 |
| 20260506002525 | 9 | 0 | 0.0 | 6.4 | 0.00 | 1.57 | 0.69 | 75 | 1015.7 |
| 20260506002025 | 10 | 183 | 3.2 | 6.4 | 0.00 | 1.57 | 0.69 | 74 | 1015.7 |
| 20260506001544 | 10 | 0 | 1.6 | 6.4 | 0.00 | 1.57 | 0.69 | 74 | 1015.8 |
| 20260506001025 | 10 | 183 | 1.6 | 6.4 | 0.00 | 1.57 | 0.69 | 72 | 1015.8 |
| 20260506000526 | 11 | 0 | 1.6 | 6.4 | 0.00 | 1.57 | 0.69 | 72 | 1015.7 |
| 20260506000047 | 10 | 183 | 0.0 | 6.4 | 0.00 | 1.57 | 0.69 | 73 | 1015.6 |
| 20260505235526 | 10 | 183 | 3.2 | 8.0 | 0.00 | 1.93 | 0.69 | 72 | 1015.5 |
| 20260505235027 | 10 | 183 | 3.2 | 9.7 | 0.00 | 1.93 | 0.69 | 71 | 1015.6 |
| 20260505234606 | 10 | 183 | 4.8 | 9.7 | 0.00 | 1.93 | 0.69 | 71 | 1015.6 |
| 20260505234025 | 11 | 182 | 1.6 | 11.3 | 0.00 | 1.93 | 0.69 | 70 | 1015.6 |
| 20260505233525 | 11 | 182 | 3.2 | 11.3 | 0.00 | 1.93 | 0.69 | 70 | 1015.6 |
| 20260505233045 | 11 | 186 | 1.6 | 8.0 | 0.00 | 1.93 | 0.69 | 72 | 1015.6 |
| 20260505232526 | 11 | 182 | 3.2 | 11.3 | 0.00 | 1.93 | 0.69 | 70 | 1015.6 |
| 20260505232026 | 11 | 184 | 3.2 | 11.3 | 0.00 | 1.93 | 0.69 | 70 | 1015.7 |
| 20260505231546 | 11 | 185 | 3.2 | 11.3 | 0.00 | 1.93 | 0.69 | 73 | 1015.7 |
| 20260505231025 | 10 | 186 | 1.6 | 11.3 | 0.00 | 1.93 | 0.69 | 74 | 1015.8 |
| 20260505230525 | 10 | 183 | 4.8 | 9.7 | 0.00 | 1.93 | 0.69 | 73 | 1015.7 |
| 20260505230047 | 10 | 183 | 1.6 | 11.3 | 0.00 | 1.93 | 0.69 | 73 | 1015.8 |
| 20260505225527 | 10 | 194 | 4.8 | 11.3 | 0.00 | 2.06 | 0.69 | 73 | 1015.8 |
| 20260505225024 | 10 | 161 | 3.2 | 11.3 | 0.00 | 2.06 | 0.69 | 73 | 1015.8 |
| 20260505224546 | 10 | 173 | 4.8 | 11.3 | 0.00 | 2.06 | 0.69 | 72 | 1015.8 |
| 20260505224025 | 10 | 112 | 4.8 | 9.7 | 0.00 | 2.06 | 0.69 | 71 | 1015.8 |
| 20260505223525 | 10 | 165 | 0.0 | 9.7 | 0.00 | 2.06 | 0.69 | 73 | 1015.8 |
| 20260505223052 | 10 | 167 | 4.8 | 9.7 | 0.00 | 2.06 | 0.69 | 72 | 1015.8 |
| 20260505222525 | 10 | 156 | 3.2 | 9.7 | 0.00 | 2.06 | 0.69 | 73 | 1015.8 |
| 20260505222027 | 10 | 157 | 6.4 | 9.7 | 0.00 | 2.06 | 0.69 | 71 | 1015.8 |
| 20260505221558 | 11 | 183 | 1.6 | 11.3 | 0.00 | 2.06 | 0.69 | 72 | 1015.8 |
| 20260505221026 | 11 | 186 | 4.8 | 11.3 | 0.00 | 2.06 | 0.69 | 72 | 1015.8 |
| 20260505220525 | 11 | 162 | 4.8 | 11.3 | 0.00 | 2.06 | 0.69 | 73 | 1015.7 |
| 20260505220050 | 11 | 194 | 3.2 | 9.7 | 0.00 | 2.06 | 0.69 | 73 | 1015.8 |
| 20260505215526 | 11 | 193 | 4.8 | 9.7 | 0.00 | 2.06 | 0.69 | 72 | 1015.9 |
| 20260505215025 | 11 | 190 | 4.8 | 12.9 | 0.00 | 2.06 | 0.69 | 73 | 1015.8 |
| 20260505214547 | 10 | 159 | 4.8 | 12.9 | 0.00 | 2.06 | 0.69 | 74 | 1015.9 |
| 20260505214026 | 11 | 182 | 3.2 | 11.3 | 0.00 | 2.06 | 0.69 | 75 | 1015.9 |
| 20260505213525 | 11 | 186 | 4.8 | 11.3 | 0.00 | 2.06 | 0.69 | 71 | 1015.8 |
| 20260505213041 | 11 | 155 | 4.8 | 11.3 | 0.00 | 2.06 | 0.69 | 75 | 1016.0 |
| 20260505212525 | 10 | 181 | 4.8 | 12.9 | 0.00 | 2.06 | 0.69 | 75 | 1015.9 |
| 20260505212027 | 10 | 180 | 3.2 | 12.9 | 0.00 | 2.06 | 0.69 | 75 | 1016.0 |
| 20260505211538 | 10 | 173 | 4.8 | 11.3 | 0.00 | 2.06 | 0.69 | 74 | 1016.1 |
| 20260505211026 | 10 | 184 | 3.2 | 11.3 | 0.00 | 2.06 | 0.69 | 78 | 1016.0 |
| 20260505210525 | 10 | 186 | 3.2 | 11.3 | 0.00 | 2.06 | 0.69 | 78 | 1015.9 |
| 20260505210046 | 10 | 181 | 1.6 | 11.3 | 0.00 | 2.06 | 0.69 | 81 | 1016.0 |
| 20260505205526 | 9 | 181 | 4.8 | 11.3 | 0.00 | 2.21 | 0.69 | 80 | 1016.0 |
| 20260505205026 | 9 | 174 | 3.2 | 11.3 | 0.00 | 2.21 | 0.69 | 82 | 1016.0 |
| 20260505204542 | 8 | 175 | 3.2 | 11.3 | 0.00 | 2.21 | 0.69 | 81 | 1016.0 |
| 20260505204025 | 8 | 182 | 1.6 | 6.4 | 0.00 | 2.21 | 0.69 | 82 | 1015.9 |
| 20260505203526 | 8 | 182 | 3.2 | 6.4 | 0.00 | 2.21 | 0.69 | 83 | 1015.9 |
| 20260505203045 | 8 | 189 | 1.6 | 6.4 | 0.00 | 2.21 | 0.69 | 85 | 1015.8 |
| 20260505202525 | 8 | 189 | 1.6 | 6.4 | 0.00 | 2.21 | 0.69 | 85 | 1015.9 |
| 20260505202024 | 7 | 189 | 1.6 | 6.4 | 0.00 | 2.21 | 0.69 | 87 | 1015.8 |
| 20260505201538 | 7 | 189 | 3.2 | 11.3 | 0.00 | 2.21 | 0.69 | 86 | 1015.9 |
| 20260505201027 | 7 | 189 | 3.2 | 11.3 | 0.00 | 2.21 | 0.69 | 84 | 1015.9 |
| 20260505200525 | 7 | 189 | 4.8 | 8.0 | 0.00 | 2.21 | 0.69 | 84 | 1016.0 |
| 20260505200037 | 7 | 188 | 3.2 | 9.7 | 0.00 | 2.21 | 0.69 | 84 | 1016.0 |
| 20260505195524 | 8 | 188 | 4.8 | 9.7 | 0.00 | 2.41 | 0.69 | 82 | 1015.8 |
| 20260505195024 | 8 | 184 | 3.2 | 8.0 | 0.00 | 2.41 | 0.69 | 84 | 1015.9 |
| 20260505194544 | 8 | 184 | 1.6 | 6.4 | 0.00 | 2.41 | 0.69 | 84 | 1015.8 |
| 20260505194026 | 8 | 185 | 1.6 | 6.4 | 0.00 | 2.41 | 0.69 | 87 | 1015.8 |
| 20260505193526 | 7 | 185 | 1.6 | 6.4 | 0.00 | 2.41 | 0.69 | 87 | 1015.8 |
| 20260505193042 | 7 | 185 | 1.6 | 8.0 | 0.00 | 2.41 | 0.69 | 87 | 1015.8 |
| 20260505192525 | 7 | 185 | 1.6 | 8.0 | 0.00 | 2.41 | 0.69 | 89 | 1015.8 |
| 20260505192025 | 6 | 185 | 1.6 | 11.3 | 0.00 | 2.41 | 0.69 | 88 | 1015.7 |
| 20260505191540 | 7 | 185 | 4.8 | 11.3 | 0.00 | 2.41 | 0.69 | 86 | 1015.8 |
| 20260505191025 | 7 | 182 | 3.2 | 9.7 | 0.00 | 2.41 | 0.69 | 89 | 1015.6 |
| 20260505190528 | 7 | 171 | 3.2 | 9.7 | 0.00 | 2.41 | 0.69 | 91 | 1015.7 |
| 20260505190046 | 6 | 0 | 0.0 | 8.0 | 0.00 | 2.41 | 0.69 | 92 | 1015.6 |
| 20260505185526 | 6 | 165 | 3.2 | 8.0 | 0.00 | 2.41 | 0.69 | 90 | 1015.6 |
| 20260505185026 | 6 | 0 | 1.6 | 8.0 | 0.00 | 2.41 | 0.69 | 91 | 1015.6 |
| 20260505184538 | 6 | 164 | 1.6 | 8.0 | 0.00 | 2.41 | 0.69 | 92 | 1015.6 |
| 20260505184026 | 6 | 164 | 0.0 | 3.2 | 0.00 | 2.41 | 0.69 | 94 | 1015.6 |
| 20260505183526 | 6 | 164 | 0.0 | 6.4 | 0.00 | 2.41 | 0.69 | 93 | 1015.6 |
| 20260505183048 | 5 | 164 | 0.0 | 6.4 | 0.00 | 2.41 | 0.69 | 93 | 1015.6 |
| 20260505182525 | 5 | 0 | 0.0 | 1.6 | 0.00 | 2.41 | 0.69 | 93 | 1015.5 |
| 20260505182026 | 5 | 0 | 0.0 | 4.8 | 0.03 | 2.41 | 0.69 | 93 | 1015.5 |
| 20260505181547 | 5 | 0 | 0.0 | 6.4 | 0.03 | 2.41 | 0.69 | 93 | 1015.4 |
| 20260505181027 | 5 | 164 | 1.6 | 8.0 | 0.03 | 2.41 | 0.69 | 93 | 1015.4 |
| 20260505180525 | 5 | 0 | 1.6 | 8.0 | 0.03 | 2.41 | 0.69 | 94 | 1015.4 |
| 20260505180045 | 5 | 164 | 0.0 | 3.2 | 0.03 | 2.41 | 0.69 | 95 | 1015.4 |
| 20260505175526 | 5 | 0 | 0.0 | 8.0 | 0.05 | 2.44 | 0.69 | 94 | 1015.2 |
| 20260505175025 | 5 | 0 | 1.6 | 8.0 | 0.05 | 2.44 | 0.69 | 94 | 1015.1 |
| 20260505174549 | 5 | 164 | 0.0 | 6.4 | 0.05 | 2.44 | 0.69 | 95 | 1015.2 |
| 20260505174025 | 5 | 164 | 0.0 | 6.4 | 0.05 | 2.44 | 0.69 | 95 | 1015.0 |
| 20260505173528 | 5 | 164 | 0.0 | 3.2 | 0.08 | 2.44 | 0.69 | 95 | 1015.1 |
| 20260505173048 | 5 | 0 | 1.6 | 3.2 | 0.08 | 2.44 | 0.69 | 95 | 1014.9 |
| 20260505172525 | 4 | 0 | 0.0 | 8.0 | 0.08 | 2.44 | 0.69 | 95 | 1014.9 |
| 20260505172026 | 4 | 164 | 1.6 | 8.0 | 0.08 | 2.41 | 0.66 | 96 | 1014.9 |
| 20260505171543 | 5 | 164 | 1.6 | 8.0 | 0.08 | 2.41 | 0.66 | 96 | 1014.8 |
| 20260505171026 | 4 | 0 | 0.0 | 6.4 | 0.08 | 2.41 | 0.66 | 96 | 1014.8 |
| 20260505170525 | 4 | 164 | 0.0 | 6.4 | 0.08 | 2.41 | 0.66 | 96 | 1014.8 |
| 20260505170042 | 4 | 0 | 0.0 | 4.8 | 0.10 | 2.41 | 0.66 | 96 | 1014.7 |
| 20260505165525 | 4 | 164 | 0.0 | 6.4 | 0.08 | 2.41 | 0.64 | 96 | 1014.7 |
| 20260505165026 | 4 | 164 | 1.6 | 6.4 | 0.08 | 2.41 | 0.64 | 96 | 1014.7 |
| 20260505164538 | 4 | 0 | 1.6 | 3.2 | 0.08 | 2.41 | 0.64 | 96 | 1014.5 |
| 20260505164025 | 3 | 0 | 0.0 | 3.2 | 0.10 | 2.41 | 0.64 | 96 | 1014.5 |
| 20260505163526 | 3 | 164 | 0.0 | 3.2 | 0.08 | 2.39 | 0.61 | 96 | 1014.5 |
| 20260505163045 | 3 | 0 | 0.0 | 3.2 | 0.08 | 2.39 | 0.61 | 96 | 1014.5 |
| 20260505162525 | 3 | 164 | 0.0 | 1.6 | 0.08 | 2.39 | 0.61 | 96 | 1014.5 |
| 20260505162025 | 3 | 0 | 0.0 | 1.6 | 0.08 | 2.36 | 0.58 | 96 | 1014.3 |
| 20260505161544 | 3 | 0 | 0.0 | 1.6 | 0.08 | 2.36 | 0.58 | 96 | 1014.3 |
| 20260505161026 | 3 | 0 | 0.0 | 1.6 | 0.08 | 2.36 | 0.58 | 96 | 1014.3 |
| 20260505160525 | 3 | 0 | 0.0 | 1.6 | 0.10 | 2.36 | 0.58 | 96 | 1014.2 |
| 20260505153048 | 3 | 0 | 0.0 | 3.2 | 0.10 | 2.34 | 0.53 | 96 | 1013.9 |
| 20260505152524 | 3 | 0 | 0.0 | 3.2 | 0.10 | 2.34 | 0.53 | 96 | 1013.8 |
| 20260505152026 | 3 | 0 | 0.0 | 0.0 | 0.08 | 2.31 | 0.51 | 96 | 1013.8 |
| 20260505151546 | 2 | 0 | 0.0 | 0.0 | 0.10 | 2.31 | 0.51 | 96 | 1013.6 |
| 20260505151025 | 2 | 0 | 0.0 | 1.6 | 0.10 | 2.31 | 0.51 | 96 | 1013.7 |
| 20260505150526 | 2 | 0 | 0.0 | 1.6 | 0.08 | 2.29 | 0.48 | 96 | 1013.7 |
| 20260505140525 | 2 | 0 | 0.0 | 1.6 | 0.05 | 2.21 | 0.41 | 96 | 1013.2 |
| 20260505125024 | 1 | 0 | 0.0 | 0.0 | 0.03 | 2.13 | 0.33 | 96 | 1012.7 |
| 20260505124548 | 1 | 0 | 0.0 | 0.0 | 0.03 | 2.13 | 0.33 | 96 | 1012.6 |
| 20260505124024 | 1 | 0 | 0.0 | 0.0 | 0.05 | 2.13 | 0.33 | 96 | 1012.6 |
| 20260505123527 | 1 | 0 | 0.0 | 0.0 | 0.05 | 2.13 | 0.33 | 96 | 1012.6 |
| 20260505123042 | 1 | 0 | 0.0 | 0.0 | 0.05 | 2.13 | 0.33 | 96 | 1012.7 |
| 20260505122525 | 1 | 0 | 0.0 | 0.0 | 0.05 | 2.13 | 0.33 | 96 | 1012.6 |
| 20260505122026 | 1 | 0 | 0.0 | 0.0 | 0.03 | 2.11 | 0.30 | 96 | 1012.6 |
| 20260505121542 | 1 | 0 | 0.0 | 0.0 | 0.03 | 2.11 | 0.30 | 96 | 1012.5 |
| 20260505121025 | 1 | 0 | 0.0 | 0.0 | 0.03 | 2.11 | 0.30 | 96 | 1012.5 |
| 20260505120524 | 1 | 0 | 0.0 | 0.0 | 0.03 | 2.11 | 0.30 | 96 | 1012.5 |
| 20260505120047 | 1 | 0 | 0.0 | 0.0 | 0.05 | 2.11 | 0.30 | 96 | 1012.5 |
| 20260505115524 | 1 | 0 | 0.0 | 0.0 | 0.05 | 2.11 | 0.30 | 96 | 1012.5 |
| 20260505115026 | 1 | 0 | 0.0 | 0.0 | 0.05 | 2.11 | 0.30 | 96 | 1012.5 |
| 20260505114547 | 1 | 0 | 0.0 | 0.0 | 0.05 | 2.11 | 0.30 | 96 | 1012.5 |
| 20260505114026 | 1 | 0 | 0.0 | 0.0 | 0.03 | 2.08 | 0.28 | 96 | 1012.6 |
| 20260505113526 | 1 | 0 | 0.0 | 0.0 | 0.03 | 2.08 | 0.28 | 96 | 1012.5 |
| 20260505113041 | 1 | 0 | 0.0 | 0.0 | 0.03 | 2.08 | 0.28 | 95 | 1012.3 |
| 20260505112529 | 1 | 0 | 0.0 | 0.0 | 0.05 | 2.08 | 0.28 | 96 | 1012.6 |
| 20260505112025 | 1 | 0 | 0.0 | 0.0 | 0.05 | 2.08 | 0.28 | 96 | 1012.5 |
| 20260505111539 | 1 | 0 | 0.0 | 0.0 | 0.05 | 2.08 | 0.28 | 96 | 1012.7 |
| 20260505111024 | 1 | 0 | 0.0 | 0.0 | 0.05 | 2.08 | 0.28 | 96 | 1012.6 |
| 20260505110526 | 1 | 0 | 0.0 | 0.0 | 0.05 | 2.08 | 0.28 | 96 | 1012.7 |
| 20260505102029 | 1 | 0 | 0.0 | 0.0 | 0.03 | 2.03 | 0.23 | 95 | 1012.9 |
| 20260505101543 | 1 | 0 | 0.0 | 0.0 | 0.05 | 2.03 | 0.23 | 95 | 1012.9 |
| 20260505101026 | 1 | 0 | 0.0 | 0.0 | 0.05 | 2.03 | 0.23 | 95 | 1013.1 |
| 20260505100525 | 1 | 0 | 0.0 | 0.0 | 0.05 | 2.03 | 0.23 | 95 | 1013.0 |
| 20260505100041 | 1 | 0 | 0.0 | 0.0 | 0.05 | 2.03 | 0.23 | 95 | 1013.1 |
| 20260505095526 | 1 | 0 | 0.0 | 0.0 | 0.05 | 2.03 | 0.23 | 95 | 1013.1 |
| 20260505095024 | 1 | 0 | 0.0 | 0.0 | 0.03 | 2.01 | 0.20 | 95 | 1013.0 |
| 20260505094545 | 1 | 0 | 0.0 | 0.0 | 0.05 | 2.01 | 0.20 | 95 | 1013.1 |
| 20260505094024 | 1 | 0 | 0.0 | 0.0 | 0.05 | 2.01 | 0.20 | 95 | 1013.2 |
| 20260505093526 | 1 | 0 | 0.0 | 0.0 | 0.05 | 2.01 | 0.20 | 95 | 1013.2 |
| 20260505093045 | 1 | 0 | 0.0 | 0.0 | 0.05 | 2.01 | 0.20 | 95 | 1013.1 |
| 20260505092526 | 1 | 0 | 0.0 | 0.0 | 0.08 | 2.01 | 0.20 | 95 | 1013.2 |
| 20260505092026 | 1 | 0 | 0.0 | 0.0 | 0.08 | 2.01 | 0.20 | 95 | 1013.1 |
| 20260505091539 | 1 | 0 | 0.0 | 0.0 | 0.05 | 1.98 | 0.18 | 95 | 1013.4 |
| 20260505091024 | 1 | 0 | 0.0 | 0.0 | 0.05 | 1.98 | 0.18 | 96 | 1013.4 |
| 20260505090525 | 1 | 0 | 0.0 | 0.0 | 0.05 | 1.98 | 0.18 | 96 | 1013.4 |
| 20260505090048 | 1 | 0 | 0.0 | 0.0 | 0.08 | 1.98 | 0.18 | 95 | 1013.3 |
| 20260505085527 | 1 | 0 | 0.0 | 0.0 | 0.08 | 1.98 | 0.18 | 95 | 1013.3 |
| 20260505085026 | 1 | 0 | 0.0 | 0.0 | 0.10 | 1.98 | 0.18 | 95 | 1013.3 |
| 20260505084548 | 1 | 0 | 0.0 | 0.0 | 0.10 | 1.96 | 0.15 | 95 | 1013.2 |
| 20260505084025 | 1 | 0 | 0.0 | 0.0 | 0.10 | 1.96 | 0.15 | 95 | 1013.4 |
| 20260505083525 | 1 | 0 | 0.0 | 0.0 | 0.10 | 1.96 | 0.15 | 95 | 1013.5 |
| 20260505083041 | 1 | 0 | 0.0 | 0.0 | 0.10 | 1.96 | 0.15 | 95 | 1013.6 |
| 20260505082525 | 1 | 0 | 0.0 | 0.0 | 0.08 | 1.93 | 0.13 | 95 | 1013.6 |
| 20260505082025 | 1 | 0 | 0.0 | 0.0 | 0.10 | 1.93 | 0.13 | 95 | 1013.5 |